Weather observations for the past three days for
Corpus Christi, Corpus Christi Naval Air Station/Truax Field
Metric (Imperial)
Date Time (cdt) Wind (kph) Vis. (km) Weather Sky Cond. Temperature (ºC) Relative Humidity Wind Chill (°C) Heat Index (°C) Pressure Precipitation (cm)
Air Dwpt 6 hour altimeter (cm) sea level (mb) 1 hr 3 hr 6 hr
Max. Min.
21 12:56 E 28 16.09 Light Rain FEW023 SCT045 BKN070 31.7 25 31.7 28.3 68% 39 76.33 1017.7
21 11:56 E 26 16.09 Mostly Cloudy FEW023 SCT035 BKN060 31.7 25 68% 39 76.35 1017.9
21 10:56 E 30 16.09 Mostly Cloudy FEW023 SCT032 BKN250 30.6 25 72% 37 76.35 1017.9
21 09:56 E 28 16.09 Mostly Cloudy SCT025 BKN035 BKN250 30 24.4 72% 36 76.33 1017.7
21 08:56 E 24 16.09 Mostly Cloudy FEW023 SCT045 BKN250 28.9 25 80% 34 76.3 1017.3
21 07:56 E 24 16.09 Partly Cloudy FEW024 FEW045 SCT250 28.9 25 80% 34 76.23 1016.2
21 06:56 E 28 G 43 16.09 Mostly Cloudy FEW022TCU SCT044 BKN250 28.3 25 82% 33 76.2 1015.8 0.15
21 05:56 E 26 16.09 Mostly Cloudy BKN018 BKN045 BKN250 28.3 25 82% 33 76.17 1015.6
21 04:56 E 26 16.09 A Few Clouds FEW023 FEW029 0 0 0% 76.17 1015.7
21 03:56 E 26 16.09 Partly Cloudy FEW020 SCT040 SCT055 0 0 0% 76.17 1015.7 0.15
21 02:56 E 24 16.09 A Few Clouds FEW020 0 0 0% 76.2 1016.0
21 01:56 E 26 16.09 Partly Cloudy FEW020 SCT041 0 0 0% 76.23 1016.3 0.15
21 00:56 E 20 16.09 Mostly Cloudy FEW044 BKN095 0 0 0% 76.25 1016.7 0.05 0.05
20 23:56 E 31 16.09 Partly Cloudy FEW020 SCT027 SCT037 0 0 0% 76.25 1016.7
20 22:56 E 31 16.09 Partly Cloudy FEW021 SCT029 SCT035 28.9 24.4 77% 34 76.23 1016.2
20 21:56 E 30 G 46 16.09 Mostly Cloudy SCT020 BKN030 28.9 24.4 77% 34 76.2 1015.8
20 20:56 E 33 16.09 Mostly Cloudy and Breezy SCT020 BKN030 28.9 24.4 77% 34 76.15 1015.3
20 19:56 E 39 G 52 16.09 Mostly Cloudy and Breezy SCT019 SCT026 BKN040 28.3 25 82% 33 76.1 1014.4
20 18:56 E 39 14.48 Mostly Cloudy and Breezy SCT019 SCT025 BKN030 28.9 25 32.2 28.9 80% 34 76.05 1013.9 0.08
20 17:56 E 41 G 54 16.09 Mostly Cloudy and Breezy SCT020 SCT027 BKN050 28.9 25.6 82% 35 76.05 1013.7
20 16:56 E 39 G 52 14.48 Mostly Cloudy and Breezy SCT022 SCT040 BKN055 30 25.6 77% 37 76.07 1014.0 0.08
20 15:56 E 39 G 61 16.09 Mostly Cloudy and Breezy SCT024 SCT033 BKN250 30.6 25.6 75% 38 76.07 1014.2
20 14:56 E 48 G 61 16.09 Partly Cloudy and Windy FEW022 FEW050 SCT250 31.7 26.1 72% 40 76.07 1014.3
20 13:56 E 43 G 63 16.09 Mostly Cloudy and Windy FEW020 SCT035 BKN250 32.2 26.1 70% 41 76.07 1014.2
20 12:56 E 39 G 57 16.09 Mostly Cloudy and Breezy SCT021TCU BKN031 BKN250 32.2 26.1 32.2 27.2 70% 41 76.07 1014.3 4.19
20 11:56 E 44 G 63 16.09 Mostly Cloudy and Windy SCT018 BKN030 BKN250 30 25.6 77% 37 76.1 1014.3
20 10:56 E 39 G 57 14.48 Mostly Cloudy and Breezy FEW014 SCT025 SCT050 BKN250 30 26.1 80% 38 76.02 1013.5 2.11
20 09:56 SE 44 G 56 1.21 Thunderstorm Heavy Rain Fog/Mist and Windy BKN016CB BKN022 OVC040 27.8 24.4 82% 32 76.02 1013.3 2.08 2.08
20 08:56 SE 54 G 69 4.83 Rain Fog/Mist and Windy BKN022CB OVC047 28.9 26.1 85% 36 76 1013.1
20 07:56 E 41 G 57 14.48 Overcast and Breezy SCT018 BKN027 OVC250 28.9 26.1 85% 36 75.9 1011.6
20 06:56 E 39 G 52 16.09 Mostly Cloudy and Breezy SCT021 SCT120 BKN250 28.9 26.1 85% 36 75.82 1010.8 0.05
20 05:56 E 44 G 65 16.09 Mostly Cloudy and Windy SCT021 SCT050 BKN120 BKN250 28.9 25.6 82% 35 75.79 1010.3
20 04:56 E 44 G 61 14.48 Overcast and Windy BKN026 OVC033 0 0 0% 75.74 1009.9
20 03:56 E 43 G 61 14.48 Overcast and Windy SCT024 OVC030 0 0 0% 75.77 1010.2 0.05
20 02:56 E 44 G 67 14.48 Overcast and Windy FEW022 BKN027 OVC110 0 0 0% 75.77 1010.2 0.03
20 01:56 E 46 G 67 14.48 Light Rain and Windy SCT026 BKN044 OVC080 0 0 0% 75.74 1009.9 0.03
20 00:52 E 50 G 72 11.27 Light Rain and Windy BKN024 BKN033 OVC060 0 0 0% 75.77 1010.2 0.08 0.94
19 23:56 E 48 G 72 4.83 Rain and Windy FEW018 SCT025 OVC032 0 0 0% 75.77 1010.2 0.25
19 22:56 E 52 G 69 11.27 Light Rain and Windy BKN019 BKN031 OVC046 0 0 0% 75.74 1009.9 0.41
19 20:56 E 41 G 59 9.66 Light Rain and Breezy FEW019 BKN026 OVC034 0 0 0% 75.64 1008.5 0.03
19 19:56 E 41 G 69 16.09 Mostly Cloudy and Breezy FEW021 BKN027 BKN055 0 0 0% 75.62 1008.2
19 17:56 E 43 G 59 4.02 Rain and Windy SCT016 BKN027 OVC070 0 0 0% 75.57 1007.5 0.05
19 16:56 E 37 G 50 12.87 Overcast and Breezy FEW011 BKN019 OVC044 0 0 0% 75.59 1007.9 0.18
19 15:56 NE 35 G 48 11.27 Light Rain and Breezy SCT015 BKN020 OVC035 0 0 0% 75.59 1007.9 0.03 0.48
19 14:56 NE 26 G 44 1.61 Heavy Rain SCT005 OVC012 0 0 0% 75.62 1008.2 0.43
19 13:56 N 31 16.09 Light Rain SCT015 BKN024 OVC036 0 0 0% 75.64 1008.5 0.03
19 12:56 NE 31 G 43 11.27 Light Rain FEW007 BKN021 OVC050 0 0 0% 75.67 1008.9 0.58 4.32
19 11:51 E 28 G 44 4.83 Rain SCT012 BKN031 OVC100 0 0 0% 75.69 1009.2 0.69
19 10:56 E 31 G 44 8.05 Light Rain SCT014 BKN025 OVC070 0 0 0% 75.64 1008.5 0.74
19 08:56 NE 35 G 50 4.02 Heavy Rain and Breezy BKN008 BKN017 OVC048 0 0 0% 75.59 1007.9 0.48
19 07:56 E 33 G 50 8.05 Light Rain and Breezy SCT015 SCT029 OVC100 0 0 0% 75.54 1007.2 0.03
19 06:56 E 35 G 56 4.02 Light Rain and Breezy BKN014 BKN033 OVC042 0 0 0% 75.51 1006.9 0.23 0.86
19 05:56 E 26 9.66 Rain FEW017 SCT045 OVC100 0 0 0% 75.49 1006.5 0.58
19 04:56 NE 41 G 54 12.87 Light Rain and Breezy BKN015 BKN024 OVC050 0 0 0% 75.49 1006.5 0.03
19 03:56 E 43 G 56 11.27 Light Rain and Windy SCT014 SCT019 BKN024 0 0 0% 75.49 1006.5 0.03
19 02:56 E 28 16.09 A Few Clouds FEW017 FEW023 FEW048 0 0 0% 75.54 1007.2 0.03
19 01:56 E 26 G 44 16.09 Mostly Cloudy FEW015 SCT020 BKN027 0 0 0% 75.59 1007.9
19 00:56 E 41 G 52 16.09 Mostly Cloudy and Breezy FEW022 SCT033 BKN040 0 0 0% 75.64 1008.5
18 22:56 E 37 G 56 16.09 Mostly Cloudy and Breezy FEW020 BKN038 BKN055 27.2 25 88% 31 75.67 1008.6
18 21:56 E 43 G 54 16.09 Mostly Cloudy and Windy FEW023 BKN033 BKN060 27.2 23.9 82% 30 75.64 1008.3
18 20:56 E 39 G 52 16.09 Mostly Cloudy and Breezy FEW021 BKN043 BKN050 27.8 25 85% 32 75.62 1007.9
18 18:56 E 35 G 56 16.09 Mostly Cloudy and Breezy SCT020 BKN030 BKN040 28.9 22.8 32.8 28.9 70% 32 75.57 1007.3
18 17:56 E 41 G 54 16.09 Mostly Cloudy and Breezy SCT025 BKN035 BKN050 30 22.2 63% 33 75.54 1007.1
18 16:56 E 41 G 57 16.09 Mostly Cloudy and Breezy FEW022 BKN045 BKN075 32.8 22.2 54% 37 75.57 1007.2
18 15:56 E 44 G 65 16.09 Partly Cloudy and Windy SCT100 SCT250 32.2 22.2 56% 36 75.57 1007.3
18 14:56 E 35 G 56 16.09 Partly Cloudy and Breezy FEW030 FEW060 SCT100 SCT250 32.2 21.7 54% 36 75.59 1007.8
18 13:56 E 26 G 50 16.09 Light Rain SCT023CB BKN044 BKN080 BKN250 29.4 22.8 68% 33 75.62 1008.0
Date Time (cdt) Wind (kph) Vis. (km) Weather Sky Cond. Air Dwpt Max. Min. Relative Humidity Wind Chill (°C) Heat Index (°C) altimeter (cm) sea level (mb) 1 hr 3 hr 6 hr
6 hour
Temperature (ºC) Pressure Precipitation (cm)